EW7943 Weather Reports


time (UTC)temp
F
wind
direction
speed
knots
gust
knots
rain 1hr
in
rain 24hr
in
rain mn
in
humidity
%
barometer
mb
20260510201608 48 125 0.0 0.0 0.00 0.00 0.00 90 1023.0
20260510200011 48 125 0.0 0.0 0.00 0.00 0.00 90 1022.9
20260510194532 48 125 0.0 0.0 0.00 0.00 0.00 89 1022.8
20260510193051 48 125 0.0 0.0 0.00 0.00 0.00 89 1022.5
20260510191511 48 125 0.0 0.0 0.00 0.00 0.00 89 1022.1
20260510190034 48 125 0.0 0.0 0.00 0.00 0.00 89 1022.0
20260510184553 48 125 0.0 0.0 0.00 0.00 0.00 88 1021.9
20260510183005 48 125 0.0 0.0 0.00 0.00 0.00 88 1021.8
20260510181533 48 125 0.0 0.0 0.00 0.00 0.00 88 1021.7
20260510180056 48 125 0.0 0.0 0.00 0.00 0.00 88 1021.6
20260510180006 48 125 0.0 0.0 0.00 0.00 0.00 88 1021.6
20260510174529 48 125 0.0 0.0 0.00 0.00 0.00 88 1021.5
20260510173059 48 125 0.0 0.0 0.00 0.00 0.00 88 1021.4
20260510171513 48 125 0.0 0.0 0.00 0.00 0.00 87 1021.5
20260510170034 48 125 0.0 0.0 0.00 0.00 0.00 87 1021.6
20260510164551 49 125 0.0 0.0 0.00 0.00 0.00 87 1021.5
20260510163016 49 125 0.0 0.0 0.00 0.00 0.00 86 1021.4
20260510161538 49 125 0.0 0.0 0.00 0.00 0.00 86 1021.5
20260510160006 49 125 0.0 0.0 0.00 0.00 0.00 85 1021.5
20260510154526 49 125 0.0 0.0 0.00 0.00 0.00 85 1021.5
20260510153048 50 125 0.0 0.0 0.00 0.00 0.00 84 1021.5
20260510151504 50 125 0.0 0.0 0.00 0.00 0.00 84 1021.5
20260510150028 50 125 0.0 0.0 0.00 0.00 0.00 84 1021.5
20260510144546 51 125 0.0 0.0 0.00 0.00 0.00 83 1021.5
20260510143010 51 125 0.0 0.0 0.00 0.00 0.00 83 1021.5
20260510141530 51 125 0.0 0.0 0.00 0.00 0.00 83 1021.5
20260510140045 51 125 0.0 0.0 0.00 0.00 0.00 82 1021.5
20260510134606 52 125 0.0 0.0 0.00 0.00 0.00 82 1021.5
20260510133018 52 125 0.0 0.0 0.00 0.00 0.00 82 1021.6
20260510131533 52 124 0.0 0.0 0.00 0.00 0.00 82 1021.6
20260510130052 52 124 0.0 0.0 0.00 0.00 0.00 81 1021.7
20260510124521 53 124 0.0 0.0 0.00 0.00 0.00 81 1021.7
20260510123051 53 124 0.0 0.0 0.00 0.00 0.00 80 1021.8
20260510121515 54 125 0.0 0.0 0.00 0.00 0.00 80 1021.8
20260510120039 54 123 0.0 0.0 0.00 0.00 0.00 79 1021.8
20260510114502 54 123 0.0 0.0 0.00 0.00 0.00 79 1021.8
20260510113013 55 123 0.0 0.0 0.00 0.00 0.00 79 1021.5
20260510111552 55 123 0.0 0.0 0.00 0.00 0.00 78 1021.5
20260510110054 56 123 0.0 0.0 0.00 0.00 0.00 77 1021.4
20260510110007 56 123 0.0 0.0 0.00 0.00 0.00 77 1021.4
20260510104520 56 123 0.0 0.0 0.00 0.00 0.00 76 1021.4
20260510103057 57 123 0.0 0.0 0.00 0.00 0.00 75 1021.4
20260510101519 58 124 0.0 0.0 0.00 0.00 0.00 74 1021.4
20260510100038 58 124 0.0 0.0 0.00 0.00 0.00 73 1021.2
20260510094553 59 123 0.0 0.0 0.00 0.00 0.00 72 1021.0
20260510093041 59 116 0.0 0.0 0.00 0.00 0.00 71 1020.9
20260510091549 60 111 0.0 0.0 0.00 0.00 0.00 71 1020.8
20260510090035 60 103 0.0 0.0 0.00 0.00 0.00 71 1020.6
20260510084546 61 100 0.0 0.0 0.00 0.00 0.00 70 1020.4
20260510083015 62 100 0.0 0.0 0.00 0.00 0.00 68 1020.2
20260510081543 63 100 0.0 0.0 0.00 0.00 0.00 67 1020.0
20260510080013 64 100 0.0 0.0 0.00 0.00 0.00 66 1019.8
20260510074541 65 100 0.0 0.0 0.00 0.00 0.00 64 1019.6
20260510073058 65 133 0.0 0.0 0.00 0.00 0.00 63 1019.6
20260510071525 66 133 0.0 0.0 0.00 0.00 0.00 62 1019.5
20260510070054 66 108 0.0 0.0 0.00 0.00 0.00 61 1019.4
20260510064518 67 112 0.0 0.0 0.00 0.00 0.00 60 1019.2
20260510063044 67 111 0.0 0.0 0.00 0.00 0.00 59 1019.2
20260510061518 67 110 0.0 0.0 0.00 0.00 0.00 59 1019.2
20260510060043 68 146 0.0 0.0 0.00 0.00 0.00 58 1019.2
20260510054510 68 145 0.0 0.0 0.00 0.00 0.00 58 1019.2
20260510053026 68 145 0.0 0.0 0.00 0.00 0.00 58 1019.2
20260510051550 68 146 0.0 0.0 0.00 0.00 0.00 58 1019.1
20260510050016 68 146 0.0 0.0 0.00 0.00 0.00 58 1019.1
20260510044551 68 127 0.0 0.0 0.00 0.00 0.00 58 1019.0
20260510043010 67 123 0.0 0.0 0.00 0.00 0.00 60 1019.1
20260510041530 67 124 0.0 0.0 0.00 0.00 0.00 60 1019.1
20260510040008 67 119 0.0 0.0 0.00 0.00 0.00 59 1019.3
20260510034516 68 112 0.0 0.0 0.00 0.00 0.00 59 1019.4
20260510033032 67 115 0.0 0.0 0.00 0.00 0.00 60 1019.4
20260510031554 66 106 0.0 0.0 0.00 0.00 0.00 63 1019.4
20260510030016 67 114 0.0 0.0 0.00 0.00 0.00 62 1019.6
20260510024528 66 103 0.0 0.0 0.00 0.00 0.00 64 1019.9
20260510023054 66 96 0.0 0.0 0.00 0.00 0.00 64 1020.1
20260510021503 65 64 0.0 0.0 0.00 0.00 0.00 66 1020.3
20260510020028 64 123 0.0 0.0 0.00 0.00 0.00 67 1020.5
20260510014551 64 123 0.0 0.0 0.00 0.00 0.00 67 1020.7
20260510013007 64 95 0.0 0.0 0.00 0.00 0.00 69 1020.8
20260510011528 63 100 0.0 0.0 0.00 0.00 0.00 70 1020.9
20260510010033 62 125 0.0 0.0 0.00 0.00 0.00 75 1020.9
20260510004554 60 119 0.0 0.0 0.00 0.00 0.00 76 1020.9
20260510003020 60 131 0.0 0.0 0.00 0.00 0.00 76 1020.9
20260510001525 59 96 0.0 0.0 0.00 0.00 0.00 81 1020.9
20260510000040 59 134 0.0 0.0 0.00 0.00 0.00 81 1020.9
20260509234628 58 110 0.0 0.0 0.00 0.00 0.00 84 1021.0
20260509233005 56 121 0.0 0.0 0.00 0.00 0.00 85 1020.9
20260509231515 56 117 0.0 0.0 0.00 0.00 0.00 87 1020.8
20260509230025 55 122 0.0 0.0 0.00 0.00 0.00 89 1020.8
20260509224545 54 113 0.0 0.0 0.00 0.00 0.00 90 1020.8
20260509223053 53 112 0.0 0.0 0.00 0.00 0.00 91 1020.6
20260509221514 52 106 0.0 0.0 0.00 0.00 0.00 91 1020.5
20260509220034 52 101 0.0 0.0 0.00 0.00 0.00 92 1020.4
20260509214547 51 99 0.0 0.0 0.00 0.00 0.00 92 1020.1
20260509213007 51 165 0.0 0.0 0.00 0.00 0.00 92 1020.0
20260509211540 51 175 0.0 0.0 0.00 0.00 0.00 92 1019.8
20260509210051 50 188 0.0 0.0 0.00 0.00 0.00 92 1019.7
20260509210001 50 188 0.0 0.0 0.00 0.00 0.00 92 1019.7
20260509204517 50 77 0.0 0.0 0.00 0.00 0.00 92 1019.7
20260509203111 51 136 0.0 0.0 0.00 0.00 0.00 92 1019.5